Year,Month,Day,Hour,Minute,Value (Times are PST for temperature in C)
2009,08,03,00,00,20.00
2009,08,03,00,01,20.00
2009,08,03,00,02,20.00
2009,08,03,00,03,20.00
2009,08,03,00,04,20.00
2009,08,03,00,05,20.00
2009,08,03,00,06,20.00
2009,08,03,00,07,20.00
2009,08,03,00,08,20.00
2009,08,03,00,09,20.00
2009,08,03,00,10,20.00
2009,08,03,00,11,20.00
2009,08,03,00,12,20.00
2009,08,03,00,13,20.00
2009,08,03,00,14,20.10
2009,08,03,00,15,20.10
2009,08,03,00,16,20.10
2009,08,03,00,17,20.10
2009,08,03,00,18,20.10
2009,08,03,00,19,20.10
2009,08,03,00,20,20.10
2009,08,03,00,21,20.10
2009,08,03,00,22,20.10
2009,08,03,00,23,20.10
2009,08,03,00,24,20.10
2009,08,03,00,25,20.00
2009,08,03,00,26,20.00
2009,08,03,00,27,20.00
2009,08,03,00,28,20.00
2009,08,03,00,29,20.00
2009,08,03,00,30,20.00
2009,08,03,00,31,19.90
2009,08,03,00,32,19.90
2009,08,03,00,33,19.90
2009,08,03,00,34,19.90
2009,08,03,00,35,19.90
2009,08,03,00,36,19.90
2009,08,03,00,37,19.90
2009,08,03,00,38,19.80
2009,08,03,00,39,19.80
2009,08,03,00,40,19.80
2009,08,03,00,41,19.80
2009,08,03,00,42,19.70
2009,08,03,00,43,19.70
2009,08,03,00,44,19.70
2009,08,03,00,45,19.70
2009,08,03,00,46,19.60
2009,08,03,00,47,19.60
2009,08,03,00,48,19.60
2009,08,03,00,49,19.50
2009,08,03,00,50,19.50
2009,08,03,00,51,19.50
2009,08,03,00,52,19.40
2009,08,03,00,53,19.40
2009,08,03,00,54,19.40
2009,08,03,00,55,19.40
2009,08,03,00,56,19.40
2009,08,03,00,57,19.40
2009,08,03,00,58,19.40
2009,08,03,00,59,19.40
2009,08,03,01,00,19.40
2009,08,03,01,01,19.40
2009,08,03,01,02,19.40
2009,08,03,01,03,19.40
2009,08,03,01,04,19.40
2009,08,03,01,05,19.40
2009,08,03,01,06,19.30
2009,08,03,01,07,19.30
2009,08,03,01,08,19.30
2009,08,03,01,09,19.30
2009,08,03,01,10,19.30
2009,08,03,01,11,19.30
2009,08,03,01,12,19.30
2009,08,03,01,13,19.30
2009,08,03,01,14,19.30
2009,08,03,01,15,19.20
2009,08,03,01,16,19.20
2009,08,03,01,17,19.20
2009,08,03,01,18,19.20
2009,08,03,01,19,19.10
2009,08,03,01,20,19.10
2009,08,03,01,21,19.10
2009,08,03,01,22,19.00
2009,08,03,01,23,19.00
2009,08,03,01,24,18.90
2009,08,03,01,25,18.90
2009,08,03,01,26,18.90
2009,08,03,01,27,18.80
2009,08,03,01,28,18.80
2009,08,03,01,29,18.70
2009,08,03,01,30,18.70
2009,08,03,01,31,18.70
2009,08,03,01,32,18.70
2009,08,03,01,33,18.60
2009,08,03,01,34,18.60
2009,08,03,01,35,18.60
2009,08,03,01,36,18.60
2009,08,03,01,37,18.60
2009,08,03,01,38,18.60
2009,08,03,01,39,18.50
2009,08,03,01,40,18.50
2009,08,03,01,41,18.50
2009,08,03,01,42,18.40
2009,08,03,01,43,18.40
2009,08,03,01,44,18.40
2009,08,03,01,45,18.40
2009,08,03,01,46,18.30
2009,08,03,01,47,18.30
2009,08,03,01,48,18.30
2009,08,03,01,49,18.30
2009,08,03,01,50,18.30
2009,08,03,01,51,18.30
2009,08,03,01,52,18.30
2009,08,03,01,53,18.20
2009,08,03,01,54,18.20
2009,08,03,01,55,18.20
2009,08,03,01,56,18.20
2009,08,03,01,57,18.20
2009,08,03,01,58,18.20
2009,08,03,01,59,18.20
2009,08,03,02,00,18.20
2009,08,03,02,01,18.10
2009,08,03,02,02,18.10
2009,08,03,02,03,18.10
2009,08,03,02,04,18.10
2009,08,03,02,05,18.00
2009,08,03,02,06,18.00
2009,08,03,02,07,18.00
2009,08,03,02,08,17.90
2009,08,03,02,09,17.90
2009,08,03,02,10,17.90
2009,08,03,02,11,17.90
2009,08,03,02,12,17.90
2009,08,03,02,13,17.80
2009,08,03,02,14,17.80
2009,08,03,02,15,17.80
2009,08,03,02,16,17.80
2009,08,03,02,17,17.80
2009,08,03,02,18,17.80
2009,08,03,02,19,17.70
2009,08,03,02,20,17.70
2009,08,03,02,21,17.70
2009,08,03,02,22,17.70
2009,08,03,02,23,17.70
2009,08,03,02,24,17.60
2009,08,03,02,25,17.60
2009,08,03,02,26,17.60
2009,08,03,02,27,17.60
2009,08,03,02,28,17.60
2009,08,03,02,29,17.60
2009,08,03,02,30,17.60
2009,08,03,02,31,17.60
2009,08,03,02,32,17.50
2009,08,03,02,33,17.50
2009,08,03,02,34,17.50
2009,08,03,02,35,17.40
2009,08,03,02,36,17.40
2009,08,03,02,37,17.40
2009,08,03,02,38,17.40
2009,08,03,02,39,17.40
2009,08,03,02,40,17.30
2009,08,03,02,41,17.30
2009,08,03,02,42,17.30
2009,08,03,02,43,17.30
2009,08,03,02,44,17.30
2009,08,03,02,45,17.30
2009,08,03,02,46,17.30
2009,08,03,02,47,17.30
2009,08,03,02,48,17.30
2009,08,03,02,49,17.30
2009,08,03,02,50,17.20
2009,08,03,02,51,17.20
2009,08,03,02,52,17.20
2009,08,03,02,53,17.20
2009,08,03,02,54,17.20
2009,08,03,02,55,17.10
2009,08,03,02,56,17.10
2009,08,03,02,57,17.10
2009,08,03,02,58,17.10
2009,08,03,02,59,17.10
2009,08,03,03,00,17.00
2009,08,03,03,01,17.00
2009,08,03,03,02,17.00
2009,08,03,03,03,16.90
2009,08,03,03,04,16.90
2009,08,03,03,05,16.90
2009,08,03,03,06,16.90
2009,08,03,03,07,16.90
2009,08,03,03,08,16.80
2009,08,03,03,09,16.80
2009,08,03,03,10,16.80
2009,08,03,03,11,16.80
2009,08,03,03,12,16.80
2009,08,03,03,13,16.80
2009,08,03,03,14,16.80
2009,08,03,03,15,16.80
2009,08,03,03,16,16.70
2009,08,03,03,17,16.70
2009,08,03,03,18,16.70
2009,08,03,03,19,16.70
2009,08,03,03,20,16.70
2009,08,03,03,21,16.70
2009,08,03,03,22,16.70
2009,08,03,03,23,16.70
2009,08,03,03,24,16.70
2009,08,03,03,25,16.70
2009,08,03,03,26,16.70
2009,08,03,03,27,16.60
2009,08,03,03,28,16.60
2009,08,03,03,29,16.60
2009,08,03,03,30,16.60
2009,08,03,03,31,16.60
2009,08,03,03,32,16.60
2009,08,03,03,33,16.50
2009,08,03,03,34,16.50
2009,08,03,03,35,16.50
2009,08,03,03,36,16.50
2009,08,03,03,37,16.40
2009,08,03,03,38,16.40
2009,08,03,03,39,16.40
2009,08,03,03,40,16.40
2009,08,03,03,41,16.40
2009,08,03,03,42,16.40
2009,08,03,03,43,16.30
2009,08,03,03,44,16.30
2009,08,03,03,45,16.30
2009,08,03,03,46,16.30
2009,08,03,03,47,16.30
2009,08,03,03,48,16.30
2009,08,03,03,49,16.30
2009,08,03,03,50,16.30
2009,08,03,03,51,16.30
2009,08,03,03,52,16.30
2009,08,03,03,53,16.30
2009,08,03,03,54,16.30
2009,08,03,03,55,16.30
2009,08,03,03,56,16.30
2009,08,03,03,57,16.30
2009,08,03,03,58,16.30
2009,08,03,03,59,16.30
2009,08,03,04,00,16.20
2009,08,03,04,01,16.20
2009,08,03,04,02,16.20
2009,08,03,04,03,16.20
2009,08,03,04,04,16.20
2009,08,03,04,05,16.20
2009,08,03,04,06,16.20
2009,08,03,04,07,16.20
2009,08,03,04,08,16.20
2009,08,03,04,09,16.20
2009,08,03,04,10,16.20
2009,08,03,04,11,16.20
2009,08,03,04,12,16.20
2009,08,03,04,13,16.20
2009,08,03,04,14,16.20
2009,08,03,04,15,16.20
2009,08,03,04,16,16.20
2009,08,03,04,17,16.20
2009,08,03,04,18,16.20
2009,08,03,04,19,16.20
2009,08,03,04,20,16.20
2009,08,03,04,21,16.20
2009,08,03,04,22,16.10
2009,08,03,04,23,16.10
2009,08,03,04,24,16.10
2009,08,03,04,25,16.10
2009,08,03,04,26,16.10
2009,08,03,04,27,16.10
2009,08,03,04,28,16.10
2009,08,03,04,29,16.10
2009,08,03,04,30,16.10
2009,08,03,04,31,16.10
2009,08,03,04,32,16.10
2009,08,03,04,33,16.10
2009,08,03,04,34,16.10
2009,08,03,04,35,16.10
2009,08,03,04,36,16.20
2009,08,03,04,37,16.10
2009,08,03,04,38,16.10
2009,08,03,04,39,16.10
2009,08,03,04,40,16.10
2009,08,03,04,41,16.10
2009,08,03,04,42,16.10
2009,08,03,04,43,16.10
2009,08,03,04,44,16.10
2009,08,03,04,45,16.00
2009,08,03,04,46,16.00
2009,08,03,04,47,16.00
2009,08,03,04,48,15.90
2009,08,03,04,49,15.90
2009,08,03,04,50,15.90
2009,08,03,04,51,15.90
2009,08,03,04,52,15.90
2009,08,03,04,53,15.80
2009,08,03,04,54,15.80
2009,08,03,04,55,15.80
2009,08,03,04,56,15.80
2009,08,03,04,57,15.80
2009,08,03,04,58,15.80
2009,08,03,04,59,15.70
2009,08,03,05,00,15.70
2009,08,03,05,01,15.70
2009,08,03,05,02,15.70
2009,08,03,05,03,15.70
2009,08,03,05,04,15.60
2009,08,03,05,05,15.60
2009,08,03,05,06,15.60
2009,08,03,05,07,15.60
2009,08,03,05,08,15.60
2009,08,03,05,09,15.60
2009,08,03,05,10,15.50
2009,08,03,05,11,15.50
2009,08,03,05,12,15.50
2009,08,03,05,13,15.40
2009,08,03,05,14,15.40
2009,08,03,05,15,15.40
2009,08,03,05,16,15.40
2009,08,03,05,17,15.30
2009,08,03,05,18,15.30
2009,08,03,05,19,15.30
2009,08,03,05,20,15.30
2009,08,03,05,21,15.30
2009,08,03,05,22,15.20
2009,08,03,05,23,15.20
2009,08,03,05,24,15.20
2009,08,03,05,25,15.20
2009,08,03,05,26,15.10
2009,08,03,05,27,15.10
2009,08,03,05,28,15.10
2009,08,03,05,29,15.00
2009,08,03,05,30,15.00
2009,08,03,05,31,15.00
2009,08,03,05,32,15.00
2009,08,03,05,33,15.00
2009,08,03,05,34,15.00
2009,08,03,05,35,15.00
2009,08,03,05,36,15.00
2009,08,03,05,37,15.00
2009,08,03,05,38,15.00
2009,08,03,05,39,15.00
2009,08,03,05,40,15.00
2009,08,03,05,41,15.00
2009,08,03,05,42,14.90
2009,08,03,05,43,14.90
2009,08,03,05,44,14.90
2009,08,03,05,45,14.80
2009,08,03,05,46,14.80
2009,08,03,05,47,14.80
2009,08,03,05,48,14.70
2009,08,03,05,49,14.70
2009,08,03,05,50,14.70
2009,08,03,05,51,14.70
2009,08,03,05,52,14.60
2009,08,03,05,53,14.60
2009,08,03,05,54,14.60
2009,08,03,05,55,14.60
2009,08,03,05,56,14.60
2009,08,03,05,57,14.50
2009,08,03,05,58,14.50
2009,08,03,05,59,14.40
2009,08,03,06,00,14.40
2009,08,03,06,01,14.40
2009,08,03,06,02,14.40
2009,08,03,06,03,14.30
2009,08,03,06,04,14.30
2009,08,03,06,05,14.30
2009,08,03,06,06,14.30
2009,08,03,06,07,14.30
2009,08,03,06,08,14.30
2009,08,03,06,09,14.30
2009,08,03,06,10,14.40
2009,08,03,06,11,14.40
2009,08,03,06,12,14.40
2009,08,03,06,13,14.40
2009,08,03,06,14,14.40
2009,08,03,06,15,14.40
2009,08,03,06,16,14.40
2009,08,03,06,17,14.40
2009,08,03,06,18,14.40
2009,08,03,06,19,14.40
2009,08,03,06,20,14.40
2009,08,03,06,21,14.40
2009,08,03,06,22,14.30
2009,08,03,06,23,14.30
2009,08,03,06,24,14.30
2009,08,03,06,25,14.30
2009,08,03,06,26,14.30
2009,08,03,06,27,14.30
2009,08,03,06,28,14.30
2009,08,03,06,29,14.30
2009,08,03,06,30,14.30
2009,08,03,06,31,14.30
2009,08,03,06,32,14.40
2009,08,03,06,33,14.40
2009,08,03,06,34,14.40
2009,08,03,06,35,14.40
2009,08,03,06,36,14.50
2009,08,03,06,37,14.50
2009,08,03,06,38,14.50
2009,08,03,06,39,14.60
2009,08,03,06,40,14.60
2009,08,03,06,41,14.60
2009,08,03,06,42,14.60
2009,08,03,06,43,14.60
2009,08,03,06,44,14.60
2009,08,03,06,45,14.60
2009,08,03,06,46,14.60
2009,08,03,06,47,14.60
2009,08,03,06,48,14.60
2009,08,03,06,49,14.70
2009,08,03,06,50,14.70
2009,08,03,06,51,14.70
2009,08,03,06,52,14.70
2009,08,03,06,53,14.70
2009,08,03,06,54,14.70
2009,08,03,06,55,14.70
2009,08,03,06,56,14.70
2009,08,03,06,57,14.80
2009,08,03,06,58,14.80
2009,08,03,06,59,14.80
2009,08,03,07,00,14.80
2009,08,03,07,01,14.90
2009,08,03,07,02,14.90
2009,08,03,07,03,14.90
2009,08,03,07,04,15.00
2009,08,03,07,05,15.00
2009,08,03,07,06,15.00
2009,08,03,07,07,15.00
2009,08,03,07,08,15.00
2009,08,03,07,09,15.00
2009,08,03,07,10,15.00
2009,08,03,07,11,15.00
2009,08,03,07,12,15.10
2009,08,03,07,13,15.10
2009,08,03,07,14,15.20
2009,08,03,07,15,15.20
2009,08,03,07,16,15.30
2009,08,03,07,17,15.40
2009,08,03,07,18,15.40
2009,08,03,07,19,15.50
2009,08,03,07,20,15.50
2009,08,03,07,21,15.60
2009,08,03,07,22,15.60
2009,08,03,07,23,15.70
2009,08,03,07,24,15.70
2009,08,03,07,25,15.80
2009,08,03,07,26,15.80
2009,08,03,07,27,15.80
2009,08,03,07,28,15.90
2009,08,03,07,29,15.90
2009,08,03,07,30,16.00
2009,08,03,07,31,16.00
2009,08,03,07,32,16.10
2009,08,03,07,33,16.10
2009,08,03,07,34,16.10
2009,08,03,07,35,16.20
2009,08,03,07,36,16.20
2009,08,03,07,37,16.20
2009,08,03,07,38,16.30
2009,08,03,07,39,16.30
2009,08,03,07,40,16.30
2009,08,03,07,41,16.30
2009,08,03,07,42,16.40
2009,08,03,07,43,16.40
2009,08,03,07,44,16.40
2009,08,03,07,45,16.50
2009,08,03,07,46,16.50
2009,08,03,07,47,16.60
2009,08,03,07,48,16.60
2009,08,03,07,49,16.60
2009,08,03,07,50,16.70
2009,08,03,07,51,16.70
2009,08,03,07,52,16.70
2009,08,03,07,53,16.80
2009,08,03,07,54,16.80
2009,08,03,07,55,16.80
2009,08,03,07,56,16.90
2009,08,03,07,57,16.90
2009,08,03,07,58,17.00
2009,08,03,07,59,17.00
2009,08,03,08,00,17.10
2009,08,03,08,01,17.20
2009,08,03,08,02,17.20
2009,08,03,08,03,17.20
2009,08,03,08,04,17.20
2009,08,03,08,05,17.30
2009,08,03,08,06,17.30
2009,08,03,08,07,17.40
2009,08,03,08,08,17.40
2009,08,03,08,09,17.40
2009,08,03,08,10,17.40
2009,08,03,08,11,17.50
2009,08,03,08,12,17.50
2009,08,03,08,13,17.60
2009,08,03,08,14,17.60
2009,08,03,08,15,17.60
2009,08,03,08,16,17.70
2009,08,03,08,17,17.70
2009,08,03,08,18,17.80
2009,08,03,08,19,17.80
2009,08,03,08,20,17.90
2009,08,03,08,21,18.00
2009,08,03,08,22,18.00
2009,08,03,08,23,18.10
2009,08,03,08,24,18.20
2009,08,03,08,25,18.20
2009,08,03,08,26,18.30
2009,08,03,08,27,18.40
2009,08,03,08,28,18.50
2009,08,03,08,29,18.50
2009,08,03,08,30,18.60
2009,08,03,08,31,18.70
2009,08,03,08,32,18.80
2009,08,03,08,33,18.90
2009,08,03,08,34,19.00
2009,08,03,08,35,19.10
2009,08,03,08,36,19.20
2009,08,03,08,37,19.40
2009,08,03,08,38,19.50
2009,08,03,08,39,19.60
2009,08,03,08,40,19.70
2009,08,03,08,41,19.90
2009,08,03,08,42,20.00
2009,08,03,08,43,20.10
2009,08,03,08,44,20.20
2009,08,03,08,45,20.30
2009,08,03,08,46,20.40
2009,08,03,08,47,20.50
2009,08,03,08,48,20.50
2009,08,03,08,49,20.60
2009,08,03,08,50,20.60
2009,08,03,08,51,20.70
2009,08,03,08,52,20.70
2009,08,03,08,53,20.80
2009,08,03,08,54,20.80
2009,08,03,08,55,20.80
2009,08,03,08,56,20.80
2009,08,03,08,57,20.80
2009,08,03,08,58,20.80
2009,08,03,08,59,20.80
2009,08,03,09,00,20.80
2009,08,03,09,01,20.80
2009,08,03,09,02,20.80
2009,08,03,09,03,20.80
2009,08,03,09,04,20.80
2009,08,03,09,05,20.80
2009,08,03,09,06,20.80
2009,08,03,09,07,20.80
2009,08,03,09,08,20.80
2009,08,03,09,09,20.80
2009,08,03,09,10,20.80
2009,08,03,09,11,20.80
2009,08,03,09,12,20.90
2009,08,03,09,13,20.90
2009,08,03,09,14,20.90
2009,08,03,09,15,21.00
2009,08,03,09,16,21.10
2009,08,03,09,17,21.10
2009,08,03,09,18,21.20
2009,08,03,09,19,21.20
2009,08,03,09,20,21.20
2009,08,03,09,21,21.20
2009,08,03,09,22,21.20
2009,08,03,09,23,21.20
2009,08,03,09,24,21.10
2009,08,03,09,25,21.20
2009,08,03,09,26,21.20
2009,08,03,09,27,21.20
2009,08,03,09,28,21.20
2009,08,03,09,29,21.20
2009,08,03,09,30,21.20
2009,08,03,09,31,21.10
2009,08,03,09,32,21.10
2009,08,03,09,33,21.10
2009,08,03,09,34,21.10
2009,08,03,09,35,21.10
2009,08,03,09,36,21.10
2009,08,03,09,37,21.20
2009,08,03,09,38,21.20
2009,08,03,09,39,21.20
2009,08,03,09,40,21.30
2009,08,03,09,41,21.30
2009,08,03,09,42,21.30
2009,08,03,09,43,21.40
2009,08,03,09,44,21.40
2009,08,03,09,45,21.40
2009,08,03,09,46,21.40
2009,08,03,09,47,21.40
2009,08,03,09,48,21.40
2009,08,03,09,49,21.40
2009,08,03,09,50,21.40
2009,08,03,09,51,21.50
2009,08,03,09,52,21.50
2009,08,03,09,53,21.50
2009,08,03,09,54,21.60
2009,08,03,09,55,21.50
2009,08,03,09,56,21.50
2009,08,03,09,57,21.50
2009,08,03,09,58,21.60
2009,08,03,09,59,21.60
2009,08,03,10,00,21.60
2009,08,03,10,01,21.60
2009,08,03,10,02,21.60
2009,08,03,10,03,21.70
2009,08,03,10,04,21.70
2009,08,03,10,05,21.80
2009,08,03,10,06,21.80
2009,08,03,10,07,21.80
2009,08,03,10,08,21.80
2009,08,03,10,09,21.80
2009,08,03,10,10,21.80
2009,08,03,10,11,21.70
2009,08,03,10,12,21.70
2009,08,03,10,13,21.70
2009,08,03,10,14,21.70
2009,08,03,10,15,21.70
2009,08,03,10,16,21.70
2009,08,03,10,17,21.70
2009,08,03,10,18,21.70
2009,08,03,10,19,21.70
2009,08,03,10,20,21.80
2009,08,03,10,21,21.70
2009,08,03,10,22,21.70
2009,08,03,10,23,21.70
2009,08,03,10,24,21.70
2009,08,03,10,25,21.70
2009,08,03,10,26,21.70
2009,08,03,10,27,21.70
2009,08,03,10,28,21.70
2009,08,03,10,29,21.70
2009,08,03,10,30,21.70
2009,08,03,10,31,21.60
2009,08,03,10,32,21.60
2009,08,03,10,33,21.60
2009,08,03,10,34,21.50
2009,08,03,10,35,21.50
2009,08,03,10,36,21.50
2009,08,03,10,37,21.40
2009,08,03,10,38,21.40
2009,08,03,10,39,21.40
2009,08,03,10,40,21.40
2009,08,03,10,41,21.40
2009,08,03,10,42,21.40
2009,08,03,10,43,21.50
2009,08,03,10,44,21.60
2009,08,03,10,45,21.60
2009,08,03,10,46,21.70
2009,08,03,10,47,21.70
2009,08,03,10,48,21.70
2009,08,03,10,49,21.70
2009,08,03,10,50,21.70
2009,08,03,10,51,21.70
2009,08,03,10,52,21.70
2009,08,03,10,53,21.70
2009,08,03,10,54,21.70
2009,08,03,10,55,21.70
2009,08,03,10,56,21.70
2009,08,03,10,57,21.70
2009,08,03,10,58,21.60
2009,08,03,10,59,21.60
2009,08,03,11,00,21.50
2009,08,03,11,01,21.40
2009,08,03,11,02,21.40
2009,08,03,11,03,21.40
2009,08,03,11,04,21.30
2009,08,03,11,05,21.40
2009,08,03,11,06,21.40
2009,08,03,11,07,21.40
2009,08,03,11,08,21.30
2009,08,03,11,09,21.40
2009,08,03,11,10,21.40
2009,08,03,11,11,21.40
2009,08,03,11,12,21.50
2009,08,03,11,13,21.50
2009,08,03,11,14,21.60
2009,08,03,11,15,21.70
2009,08,03,11,16,21.80
2009,08,03,11,17,21.90
2009,08,03,11,18,22.00
2009,08,03,11,19,22.10
2009,08,03,11,20,22.10
2009,08,03,11,21,22.20
2009,08,03,11,22,22.30
2009,08,03,11,23,22.40
2009,08,03,11,24,22.40
2009,08,03,11,25,22.40
2009,08,03,11,26,22.50
2009,08,03,11,27,22.60
2009,08,03,11,28,22.60
2009,08,03,11,29,22.70
2009,08,03,11,30,22.80
2009,08,03,11,31,22.90
2009,08,03,11,32,22.90
2009,08,03,11,33,23.00
2009,08,03,11,34,23.10
2009,08,03,11,35,23.10
2009,08,03,11,36,23.10
2009,08,03,11,37,23.10
2009,08,03,11,38,23.10
2009,08,03,11,39,23.20
2009,08,03,11,40,23.20
2009,08,03,11,41,23.20
2009,08,03,11,42,23.30
2009,08,03,11,43,23.30
2009,08,03,11,44,23.40
2009,08,03,11,45,23.40
2009,08,03,11,46,23.40
2009,08,03,11,47,23.50
2009,08,03,11,48,23.50
2009,08,03,11,49,23.60
2009,08,03,11,50,23.60
2009,08,03,11,51,23.60
2009,08,03,11,52,23.60
2009,08,03,11,53,23.60
2009,08,03,11,54,23.50
2009,08,03,11,55,23.50
2009,08,03,11,56,23.50
2009,08,03,11,57,23.60
2009,08,03,11,58,23.60
2009,08,03,11,59,23.50
2009,08,03,12,00,23.50
2009,08,03,12,01,23.40
2009,08,03,12,02,23.30
2009,08,03,12,03,23.20
2009,08,03,12,04,23.10
2009,08,03,12,05,23.10
2009,08,03,12,06,23.00
2009,08,03,12,07,23.00
2009,08,03,12,08,23.00
2009,08,03,12,09,23.10
2009,08,03,12,10,23.10
2009,08,03,12,11,23.10
2009,08,03,12,12,23.10
2009,08,03,12,13,23.10
2009,08,03,12,14,23.10
2009,08,03,12,15,23.10
2009,08,03,12,16,23.20
2009,08,03,12,17,23.20
2009,08,03,12,18,23.10
2009,08,03,12,19,23.10
2009,08,03,12,20,23.00
2009,08,03,12,21,23.00
2009,08,03,12,22,22.90
2009,08,03,12,23,22.80
2009,08,03,12,24,22.80
2009,08,03,12,25,22.70
2009,08,03,12,26,22.80
2009,08,03,12,27,22.80
2009,08,03,12,28,22.80
2009,08,03,12,29,22.90
2009,08,03,12,30,23.00
2009,08,03,12,31,23.10
2009,08,03,12,32,23.20
2009,08,03,12,33,23.30
2009,08,03,12,34,23.40
2009,08,03,12,35,23.50
2009,08,03,12,36,23.60
2009,08,03,12,37,23.60
2009,08,03,12,38,23.70
2009,08,03,12,39,23.80
2009,08,03,12,40,23.90
2009,08,03,12,41,24.00
2009,08,03,12,42,24.10
2009,08,03,12,43,24.10
2009,08,03,12,44,24.20
2009,08,03,12,45,24.20
2009,08,03,12,46,24.20
2009,08,03,12,47,24.30
2009,08,03,12,48,24.30
2009,08,03,12,49,24.40
2009,08,03,12,50,24.40
2009,08,03,12,51,24.50
2009,08,03,12,52,24.60
2009,08,03,12,53,24.60
2009,08,03,12,54,24.60
2009,08,03,12,55,24.50
2009,08,03,12,56,24.50
2009,08,03,12,57,24.50
2009,08,03,12,58,24.30
2009,08,03,12,59,24.20
2009,08,03,13,00,24.10
2009,08,03,13,01,24.00
2009,08,03,13,02,23.90
2009,08,03,13,03,23.80
2009,08,03,13,04,23.70
2009,08,03,13,05,23.70
2009,08,03,13,06,23.70
2009,08,03,13,07,23.70
2009,08,03,13,08,23.70
2009,08,03,13,09,23.80
2009,08,03,13,10,23.80
2009,08,03,13,11,23.80
2009,08,03,13,12,23.90
2009,08,03,13,13,23.90
2009,08,03,13,14,23.90
2009,08,03,13,15,23.90
2009,08,03,13,16,23.90
2009,08,03,13,17,23.80
2009,08,03,13,18,23.80
2009,08,03,13,19,23.70
2009,08,03,13,20,23.60
2009,08,03,13,21,23.50
2009,08,03,13,22,23.50
2009,08,03,13,23,23.40
2009,08,03,13,24,23.40
2009,08,03,13,25,23.40
2009,08,03,13,26,23.40
2009,08,03,13,27,23.40
2009,08,03,13,28,23.40
2009,08,03,13,29,23.50
2009,08,03,13,30,23.50
2009,08,03,13,31,23.60
2009,08,03,13,32,23.60
2009,08,03,13,33,23.70
2009,08,03,13,34,23.80
2009,08,03,13,35,24.00
2009,08,03,13,36,24.10
2009,08,03,13,37,24.10
2009,08,03,13,38,24.10
2009,08,03,13,39,24.10
2009,08,03,13,40,24.10
2009,08,03,13,41,24.00
2009,08,03,13,42,24.00
2009,08,03,13,43,24.00
2009,08,03,13,44,24.00
2009,08,03,13,45,23.90
2009,08,03,13,46,23.90
2009,08,03,13,47,23.90
2009,08,03,13,48,23.90
2009,08,03,13,49,23.90
2009,08,03,13,50,23.90
2009,08,03,13,51,24.00
2009,08,03,13,52,24.00
2009,08,03,13,53,24.00
2009,08,03,13,54,24.00
2009,08,03,13,55,24.10
2009,08,03,13,56,24.10
2009,08,03,13,57,24.20
2009,08,03,13,58,24.20
2009,08,03,13,59,24.30
2009,08,03,14,00,24.30
2009,08,03,14,01,24.30
2009,08,03,14,02,24.30
2009,08,03,14,03,24.30
2009,08,03,14,04,24.40
2009,08,03,14,05,24.50
2009,08,03,14,06,24.60
2009,08,03,14,07,24.60
2009,08,03,14,08,24.70
2009,08,03,14,09,24.80
2009,08,03,14,10,24.90
2009,08,03,14,11,25.00
2009,08,03,14,12,25.00
2009,08,03,14,13,25.00
2009,08,03,14,14,25.00
2009,08,03,14,15,25.10
2009,08,03,14,16,25.10
2009,08,03,14,17,25.20
2009,08,03,14,18,25.30
2009,08,03,14,19,25.40
2009,08,03,14,20,25.50
2009,08,03,14,21,25.50
2009,08,03,14,22,25.30
2009,08,03,14,23,25.30
2009,08,03,14,24,25.20
2009,08,03,14,25,25.10
2009,08,03,14,26,25.10
2009,08,03,14,27,25.10
2009,08,03,14,28,25.10
2009,08,03,14,29,25.10
2009,08,03,14,30,25.10
2009,08,03,14,31,25.10
2009,08,03,14,32,25.10
2009,08,03,14,33,25.10
2009,08,03,14,34,25.10
2009,08,03,14,35,25.20
2009,08,03,14,36,25.20
2009,08,03,14,37,25.30
2009,08,03,14,38,25.30
2009,08,03,14,39,25.40
2009,08,03,14,40,25.40
2009,08,03,14,41,25.50
2009,08,03,14,42,25.50
2009,08,03,14,43,25.50
2009,08,03,14,44,25.50
2009,08,03,14,45,25.40
2009,08,03,14,46,25.40
2009,08,03,14,47,25.50
2009,08,03,14,48,25.50
2009,08,03,14,49,25.50
2009,08,03,14,50,25.60
2009,08,03,14,51,25.70
2009,08,03,14,52,25.80
2009,08,03,14,53,25.90
2009,08,03,14,54,25.90
2009,08,03,14,55,25.90
2009,08,03,14,56,25.90
2009,08,03,14,57,25.90
2009,08,03,14,58,25.90
2009,08,03,14,59,25.90
2009,08,03,15,00,25.80
2009,08,03,15,01,25.80
2009,08,03,15,02,25.80
2009,08,03,15,03,25.80
2009,08,03,15,04,25.90
2009,08,03,15,05,26.00
2009,08,03,15,06,26.10
2009,08,03,15,07,26.20
2009,08,03,15,08,26.30
2009,08,03,15,09,26.40
2009,08,03,15,10,26.40
2009,08,03,15,11,26.50
2009,08,03,15,12,26.60
2009,08,03,15,13,26.60
2009,08,03,15,14,26.70
2009,08,03,15,15,26.70
2009,08,03,15,16,26.70
2009,08,03,15,17,26.60
2009,08,03,15,18,26.60
2009,08,03,15,19,26.70
2009,08,03,15,20,26.60
2009,08,03,15,21,26.70
2009,08,03,15,22,26.60
2009,08,03,15,23,26.60
2009,08,03,15,24,26.50
2009,08,03,15,25,26.40
2009,08,03,15,26,26.40
2009,08,03,15,27,26.40
2009,08,03,15,28,26.40
2009,08,03,15,29,26.40
2009,08,03,15,30,26.50
2009,08,03,15,31,26.50
2009,08,03,15,32,26.50
2009,08,03,15,33,26.60
2009,08,03,15,34,26.50
2009,08,03,15,35,26.50
2009,08,03,15,36,26.50
2009,08,03,15,37,26.50
2009,08,03,15,38,26.40
2009,08,03,15,39,26.40
2009,08,03,15,40,26.30
2009,08,03,15,41,26.30
2009,08,03,15,42,26.30
2009,08,03,15,43,26.40
2009,08,03,15,44,26.40
2009,08,03,15,45,26.50
2009,08,03,15,46,26.60
2009,08,03,15,47,26.60
2009,08,03,15,48,26.60
2009,08,03,15,49,26.70
2009,08,03,15,50,26.80
2009,08,03,15,51,26.90
2009,08,03,15,52,26.90
2009,08,03,15,53,26.90
2009,08,03,15,54,26.90
2009,08,03,15,55,26.90
2009,08,03,15,56,26.80
2009,08,03,15,57,26.60
2009,08,03,15,58,26.50
2009,08,03,15,59,26.50
2009,08,03,16,00,26.40
2009,08,03,16,01,26.30
2009,08,03,16,02,26.30
2009,08,03,16,03,26.20
2009,08,03,16,04,26.30
2009,08,03,16,05,26.40
2009,08,03,16,06,26.40
2009,08,03,16,07,26.40
2009,08,03,16,08,26.40
2009,08,03,16,09,26.50
2009,08,03,16,10,26.40
2009,08,03,16,11,26.40
2009,08,03,16,12,26.40
2009,08,03,16,13,26.40
2009,08,03,16,14,26.40
2009,08,03,16,15,26.30
2009,08,03,16,16,26.30
2009,08,03,16,17,26.30
2009,08,03,16,18,26.30
2009,08,03,16,19,26.30
2009,08,03,16,20,26.20
2009,08,03,16,21,26.00
2009,08,03,16,22,25.90
2009,08,03,16,23,25.80
2009,08,03,16,24,25.70
2009,08,03,16,25,25.70
2009,08,03,16,26,25.70
2009,08,03,16,27,25.70
2009,08,03,16,28,25.60
2009,08,03,16,29,25.50
2009,08,03,16,30,25.40
2009,08,03,16,31,25.40
2009,08,03,16,32,25.30
2009,08,03,16,33,25.30
2009,08,03,16,34,25.30
2009,08,03,16,35,25.20
2009,08,03,16,36,25.30
2009,08,03,16,37,25.40
2009,08,03,16,38,25.50
2009,08,03,16,39,25.60
2009,08,03,16,40,25.70
2009,08,03,16,41,25.70
2009,08,03,16,42,25.70
2009,08,03,16,43,25.70
2009,08,03,16,44,25.80
2009,08,03,16,45,25.70
2009,08,03,16,46,25.80
2009,08,03,16,47,25.80
2009,08,03,16,48,25.90
2009,08,03,16,49,25.90
2009,08,03,16,50,25.90
2009,08,03,16,51,25.90
2009,08,03,16,52,26.00
2009,08,03,16,53,26.10
2009,08,03,16,54,26.10
2009,08,03,16,55,26.10
2009,08,03,16,56,26.10
2009,08,03,16,57,26.10
2009,08,03,16,58,26.10
2009,08,03,16,59,26.20
2009,08,03,17,00,26.20
2009,08,03,17,01,26.30
2009,08,03,17,02,26.20
2009,08,03,17,03,26.20
2009,08,03,17,04,26.20
2009,08,03,17,05,26.20
2009,08,03,17,06,26.20
2009,08,03,17,07,26.20
2009,08,03,17,08,26.10
2009,08,03,17,09,26.10
2009,08,03,17,10,26.20
2009,08,03,17,11,26.20
2009,08,03,17,12,26.20
2009,08,03,17,13,26.20
2009,08,03,17,14,26.30
2009,08,03,17,15,26.30
2009,08,03,17,16,26.30
2009,08,03,17,17,26.40
2009,08,03,17,18,26.40
2009,08,03,17,19,26.40